Le nostre stazioni meteo in Italia

Pubblicità
Il mio iltempo24.it
Tarvisio, Italia (16040): Temperatura & dewpoint: 14.01.2019 07:00:00 - 20.01.2019 07:00:00 (CET)Tarvisio, Italia (16040): velocità del vento: 14.01.2019 07:00:00 - 20.01.2019 07:00:00 (CET)Tarvisio, Italia (16040): direzione del vento: 14.01.2019 07:00:00 - 20.01.2019 07:00:00 (CET)Tarvisio, Italia (16040): visibility: 14.01.2019 07:00:00 - 20.01.2019 07:00:00 (CET)
Data & Tempo tt [°C] td [°C] ff [km/h] ff [kn] dd vv [km]
20.01.2019 07:00:00 -4,4 -6,4 0 0 N 10
20.01.2019 06:00:00 - - - - - -
20.01.2019 05:00:00 - - - - - -
20.01.2019 04:00:00 - - - - - -
20.01.2019 03:00:00 - - - - - -
20.01.2019 02:00:00 - - - - - -
20.01.2019 01:00:00 - - - - - -
20.01.2019 00:00:00 - - - - - -
19.01.2019 23:00:00 - - - - - -
19.01.2019 22:00:00 - - - - - -
19.01.2019 21:00:00 - - - - - -
19.01.2019 20:00:00 - - - - - -
19.01.2019 19:00:00 -3,4 -5,3 0 0 N 10
19.01.2019 18:00:00 -3,0 -5,0 0 0 N 10
19.01.2019 17:00:00 -2,0 -4,0 0 0 N 10
19.01.2019 16:00:00 -2,2 -4,1 2 1 SE 10
19.01.2019 15:00:00 -2,0 -4,0 2 1 SSE 10
19.01.2019 14:00:00 -3,0 -5,0 4 2 S 10
19.01.2019 13:00:00 -3,0 -5,2 8 4 E 10
19.01.2019 12:00:00 -3,0 -5,0 8 4 E 10
19.01.2019 11:00:00 -3,0 -5,0 8 4 ENE 10
19.01.2019 10:00:00 -3,2 -5,5 2 1 E 10
19.01.2019 09:00:00 -3,0 -6,0 2 1 NE 10
19.01.2019 08:00:00 -3,0 -6,0 8 4 N 10
19.01.2019 07:00:00 -3,0 -5,6 2 1 NO 10
19.01.2019 06:00:00 - - - - - -
19.01.2019 05:00:00 - - - - - -
19.01.2019 04:00:00 - - - - - -
19.01.2019 03:00:00 - - - - - -
19.01.2019 02:00:00 - - - - - -
19.01.2019 01:00:00 - - - - - -
19.01.2019 00:00:00 - - - - - -
18.01.2019 23:00:00 - - - - - -
18.01.2019 22:00:00 - - - - - -
18.01.2019 21:00:00 - - - - - -
18.01.2019 20:00:00 - - - - - -
18.01.2019 19:00:00 -1,2 -3,1 0 0 N 10
18.01.2019 18:00:00 -1,0 -3,0 0 0 N 10
18.01.2019 17:00:00 -1,0 -3,0 2 1 SSO 10
18.01.2019 16:00:00 -0,8 -4,2 5 3 NNE 10
18.01.2019 15:00:00 0,0 -3,0 8 4 O 10
18.01.2019 14:00:00 0,0 -3,0 5 3 SE 10
18.01.2019 13:00:00 0,0 -1,7 0 0 N 8
18.01.2019 12:00:00 0,0 -1,0 0 0 N 8
18.01.2019 11:00:00 0,0 -1,0 0 0 N 4,0
18.01.2019 10:00:00 0,0 -1,1 0 0 N 3,0
18.01.2019 09:00:00 0,0 -1,0 0 0 N 1,5
18.01.2019 08:00:00 0,0 -1,0 0 0 N 1,5
18.01.2019 07:00:00 -0,2 -1,1 0 0 N 1,5
18.01.2019 06:00:00 - - - - - -
18.01.2019 05:00:00 - - - - - -
18.01.2019 04:00:00 - - - - - -
18.01.2019 03:00:00 - - - - - -
18.01.2019 02:00:00 - - - - - -
18.01.2019 01:00:00 - - - - - -
18.01.2019 00:00:00 - - - - - -
17.01.2019 23:00:00 - - - - - -
17.01.2019 22:00:00 - - - - - -
17.01.2019 21:00:00 - - - - - -
17.01.2019 20:00:00 - - - - - -
17.01.2019 19:00:00 3,2 2,9 8 4 ONO 8
17.01.2019 18:00:00 4,0 2,0 9 5 NO 8
17.01.2019 17:00:00 4,0 2,0 8 4 ONO 10
17.01.2019 16:00:00 5,0 2,7 4 2 O 10
17.01.2019 15:00:00 5,0 2,0 11 6 ONO 10
17.01.2019 14:00:00 6,0 2,0 9 5 SO 10
17.01.2019 13:00:00 6,0 2,3 11 6 SO 10
17.01.2019 12:00:00 5,0 2,0 9 5 OSO 10
17.01.2019 11:00:00 5,0 2,0 9 5 SO 10
17.01.2019 10:00:00 5,0 2,2 9 5 S 10
17.01.2019 09:00:00 5,0 1,0 9 5 O 10
17.01.2019 08:00:00 4,0 1,0 8 4 NO 10
17.01.2019 07:00:00 3,8 0,3 5 3 ONO 10
17.01.2019 06:00:00 - - - - - -
17.01.2019 05:00:00 - - - - - -
17.01.2019 04:00:00 - - - - - -
17.01.2019 03:00:00 - - - - - -
17.01.2019 02:00:00 - - - - - -
17.01.2019 01:00:00 - - - - - -
17.01.2019 00:00:00 - - - - - -
16.01.2019 23:00:00 - - - - - -
16.01.2019 22:00:00 - - - - - -
16.01.2019 21:00:00 - - - - - -
16.01.2019 20:00:00 - - - - - -
16.01.2019 19:00:00 2,0 -1,1 15 8 O 15
16.01.2019 18:00:00 3,0 -1,0 11 6 O 10
16.01.2019 17:00:00 4,0 -2,0 11 6 O 10
16.01.2019 16:00:00 4,0 -3,1 11 6 O 15
16.01.2019 15:00:00 4,0 -3,0 13 7 O 10
16.01.2019 14:00:00 5,0 -3,0 11 6 O 10
16.01.2019 13:00:00 3,6 -3,7 9 5 OSO 15
16.01.2019 12:00:00 3,0 -4,0 18 10 O 10
16.01.2019 11:00:00 2,0 -5,0 16 9 O 10
16.01.2019 10:00:00 0,4 -6,0 16 9 O 15
16.01.2019 09:00:00 -1,0 -7,0 11 6 SO 10
16.01.2019 08:00:00 -1,0 -7,0 15 8 ONO 10
16.01.2019 07:00:00 -0,4 -6,6 18 10 ONO 15
16.01.2019 06:00:00 - - - - - -
16.01.2019 05:00:00 - - - - - -
16.01.2019 04:00:00 - - - - - -
16.01.2019 03:00:00 - - - - - -
16.01.2019 02:00:00 - - - - - -
16.01.2019 01:00:00 - - - - - -
16.01.2019 00:00:00 - - - - - -
15.01.2019 23:00:00 - - - - - -
15.01.2019 22:00:00 - - - - - -
15.01.2019 21:00:00 - - - - - -
15.01.2019 20:00:00 - - - - - -
15.01.2019 19:00:00 0,8 -7,7 9 5 NO 15
15.01.2019 18:00:00 1,0 -8,0 8 4 NO 10
15.01.2019 17:00:00 1,0 -8,0 4 2 ONO 10
15.01.2019 16:00:00 1,4 -8,4 4 2 ONO 15
15.01.2019 15:00:00 3,0 -6,0 2 1 ONO 10
15.01.2019 14:00:00 4,0 -6,0 5 3 S 10
15.01.2019 13:00:00 3,0 -5,2 5 3 SSE 15
15.01.2019 12:00:00 2,0 -4,0 4 2 SSO 10
15.01.2019 11:00:00 -1,0 -5,0 2 1 SO 10
15.01.2019 10:00:00 -4,0 -5,5 0 0 N 15
15.01.2019 09:00:00 -5,0 -7,0 0 0 N 10
15.01.2019 08:00:00 -5,0 -7,0 0 0 N 10
15.01.2019 07:00:00 -4,8 -6,2 0 0 N 15
15.01.2019 06:00:00 - - - - - -
15.01.2019 05:00:00 - - - - - -
15.01.2019 04:00:00 - - - - - -
15.01.2019 03:00:00 - - - - - -
15.01.2019 02:00:00 - - - - - -
15.01.2019 01:00:00 - - - - - -
15.01.2019 00:00:00 - - - - - -
14.01.2019 23:00:00 - - - - - -
14.01.2019 22:00:00 - - - - - -
14.01.2019 21:00:00 - - - - - -
14.01.2019 20:00:00 - - - - - -
14.01.2019 19:00:00 1,4 0,5 11 6 E 10
14.01.2019 18:00:00 3,0 -4,0 0 0 N 10
14.01.2019 17:00:00 5,0 -4,0 0 0 N 10
14.01.2019 16:00:00 6,0 -4,2 9 5 NNO 15
14.01.2019 15:00:00 6,0 -5,0 9 5 O 10
14.01.2019 14:00:00 7,0 -4,0 9 5 OSO 10
14.01.2019 13:00:00 6,6 -2,6 5 3 O 15
14.01.2019 12:00:00 5,0 -1,0 8 4 SE 10
14.01.2019 11:00:00 2,0 0,0 4 2 SSE 10
14.01.2019 10:00:00 -1,4 -1,5 2 1 ESE 12
14.01.2019 09:00:00 -2,0 -2,0 2 1 NNO 10
14.01.2019 08:00:00 -1,0 -2,0 4 2 NE 10
14.01.2019 07:00:00 -1,0 -1,3 0 0 N 10

tt = Temperatura
td = dewpoint
ff = velocità del vento
dd = direzione del vento
vv = visibility

Stazioni seguenti

WeatherPro
AMSI
MeteoEarth